FW7064 Weather Reports


time (UTC)temp
F
wind
direction
speed
knots
gust
knots
rain 1hr
in
rain 24hr
in
rain mn
in
humidity
%
barometer
mb
20260509044626 52 315 0.0 0.0 0.00 0.00 0.00 84 1024.2
20260509043625 53 315 0.0 0.0 0.00 0.00 0.00 84 1024.1
20260509042626 53 315 0.0 0.0 0.00 0.00 0.00 83 1024.1
20260509041626 53 315 0.0 0.0 0.00 0.00 0.00 84 1024.1
20260509040725 53 315 0.0 0.0 0.00 0.00 0.00 83 1024.1
20260509035725 53 315 0.0 0.0 0.00 0.00 0.00 84 1024.0
20260509034824 53 315 0.0 0.0 0.00 0.00 0.00 86 1023.9
20260509034727 53 315 0.0 0.0 0.00 0.00 0.00 85 1023.9
20260509033726 53 315 0.0 0.0 0.00 0.00 0.00 85 1023.7
20260509032727 53 315 0.0 0.0 0.00 0.00 0.00 85 1023.7
20260509031726 53 315 0.0 0.0 0.00 0.00 0.00 85 1023.7
20260509030725 53 315 0.0 0.0 0.00 0.00 0.00 83 1023.6
20260509025726 53 315 0.0 0.0 0.00 0.00 0.00 83 1023.6
20260509023727 53 315 0.0 0.0 0.00 0.00 0.00 79 1023.5
20260509022824 53 315 0.0 0.0 0.00 0.00 0.00 79 1023.4
20260509021824 53 315 0.0 0.0 0.00 0.00 0.00 78 1023.4
20260509020826 53 315 0.0 0.0 0.00 0.00 0.00 79 1023.4
20260509015825 54 315 0.0 0.0 0.00 0.00 0.00 77 1023.4
20260509014826 54 315 0.0 0.0 0.00 0.00 0.00 78 1023.4
20260509013924 54 360 0.0 0.0 0.00 0.00 0.00 79 1023.4
20260509012927 54 360 0.0 0.0 0.00 0.00 0.00 79 1023.5
20260509011925 54 360 0.0 0.0 0.00 0.00 0.00 79 1023.5
20260509010925 54 360 0.0 0.0 0.00 0.00 0.00 80 1023.6
20260509005926 54 360 0.0 0.0 0.00 0.00 0.00 80 1023.6
20260509005825 55 360 0.0 0.0 0.00 0.00 0.00 80 1023.5
20260509004924 55 22 0.0 0.0 0.00 0.00 0.00 80 1023.5
20260509002025 54 22 0.0 0.0 0.00 0.00 0.00 80 1023.5
20260509001025 54 22 0.0 0.0 0.00 0.00 0.00 80 1023.6
20260509000123 54 360 0.0 0.0 0.00 0.00 0.00 80 1023.7
20260508235124 54 22 0.0 0.0 0.00 0.00 0.00 80 1023.6
20260508234125 54 352 0.0 0.0 0.00 0.00 0.00 80 1023.6
20260508233126 55 315 0.0 0.0 0.00 0.00 0.00 80 1023.4
20260508232125 55 315 0.0 0.0 0.00 0.00 0.00 80 1023.4
20260508231125 54 315 0.0 0.0 0.00 0.00 0.00 78 1023.4
20260508230124 54 315 0.0 0.0 0.00 0.00 0.00 78 1023.5
20260508230025 54 315 0.0 0.0 0.00 0.00 0.00 79 1023.5
20260508225025 54 315 0.0 0.0 0.00 0.00 0.00 79 1023.4
20260508224026 54 315 0.0 0.0 0.00 0.00 0.00 80 1023.3
20260508223026 54 315 0.0 0.0 0.00 0.00 0.00 80 1023.4
20260508222026 54 315 0.0 0.0 0.00 0.00 0.00 80 1023.4
20260508220125 54 315 0.0 0.0 0.00 0.00 0.00 80 1023.4
20260508215125 54 315 0.0 0.0 0.00 0.00 0.00 80 1023.4
20260508213225 54 315 0.0 0.0 0.00 0.00 0.00 80 1023.3
20260508212224 54 315 0.0 0.0 0.00 0.00 0.00 81 1023.3
20260508210225 53 315 0.0 0.0 0.00 0.00 0.00 82 1023.3
20260508205226 53 315 0.0 0.0 0.00 0.00 0.00 83 1023.1
20260508204226 53 315 0.0 0.0 0.00 0.00 0.00 83 1022.9
20260508204124 53 315 0.0 0.0 0.00 0.00 0.00 83 1022.9
20260508203126 53 292 0.0 0.0 0.00 0.00 0.00 83 1023.0
20260508202126 53 292 0.0 0.0 0.00 0.00 0.00 83 1022.9
20260508201127 52 292 0.0 0.0 0.00 0.00 0.00 83 1022.8
20260508195126 53 292 0.0 0.0 0.00 0.00 0.00 82 1022.7
20260508194125 53 292 0.0 0.0 0.00 0.00 0.00 82 1022.6
20260508193126 53 292 0.0 0.0 0.00 0.00 0.00 83 1022.7
20260508192225 53 182 0.0 0.0 0.00 0.00 0.00 83 1022.6
20260508191226 53 180 0.0 0.0 0.00 0.00 0.00 84 1022.4
20260508190225 52 294 0.0 0.0 0.00 0.00 0.00 84 1022.2
20260508185225 52 308 0.0 0.0 0.00 0.00 0.00 84 1022.2
20260508184227 52 292 0.0 0.0 0.00 0.00 0.00 85 1022.2
20260508183227 52 305 0.0 0.0 0.00 0.00 0.00 86 1022.0
20260508182223 52 292 0.0 0.0 0.00 0.00 0.00 85 1022.2
20260508181225 52 292 0.0 0.0 0.00 0.00 0.00 87 1022.1
20260508181126 52 292 0.0 0.0 0.00 0.00 0.00 87 1022.0
20260508180126 52 292 0.0 0.0 0.00 0.00 0.00 88 1021.8
20260508175127 52 292 0.0 0.0 0.00 0.00 0.00 88 1021.6
20260508174126 52 294 0.0 0.0 0.00 0.00 0.00 89 1021.6
20260508173127 52 292 0.0 0.0 0.00 0.00 0.00 90 1021.4
20260508172224 52 315 0.0 0.0 0.00 0.00 0.00 89 1021.4
20260508171226 52 292 0.0 0.0 0.00 0.00 0.00 89 1021.4
20260508170324 52 292 0.0 0.0 0.00 0.00 0.00 89 1021.4
20260508165325 52 315 0.0 0.0 0.00 0.00 0.00 89 1021.1
20260508163325 52 315 0.0 0.0 0.00 0.00 0.00 90 1020.9
20260508162326 52 315 0.0 0.0 0.00 0.00 0.00 88 1020.6
20260508160326 52 315 0.0 0.0 0.00 0.00 0.00 88 1020.4
20260508155326 52 292 0.0 0.0 0.00 0.00 0.00 89 1020.4
20260508153424 52 157 0.0 0.0 0.00 0.00 0.00 89 1020.4
20260508152425 52 157 0.0 0.0 0.00 0.00 0.00 89 1020.4
20260508151426 52 292 0.0 0.0 0.00 0.00 0.00 88 1020.4
20260508150523 52 292 0.0 0.0 0.00 0.00 0.00 89 1020.2
20260508145525 52 284 0.0 0.0 0.00 0.00 0.00 89 1020.1
20260508144526 52 214 0.0 0.0 0.00 0.00 0.00 90 1020.1
20260508143525 52 284 0.0 0.0 0.00 0.00 0.00 90 1019.9
20260508142527 52 262 0.0 0.0 0.00 0.00 0.00 89 1019.8
20260508141625 52 279 0.0 0.0 0.00 0.00 0.00 90 1019.7
20260508140724 52 277 0.0 0.0 0.00 0.00 0.00 89 1019.5
20260508135725 51 221 0.0 0.0 0.00 0.00 0.00 90 1019.4
20260508134724 51 224 0.0 0.0 0.00 0.00 0.00 91 1019.2
20260508133725 51 226 0.0 0.0 0.00 0.00 0.00 91 1019.1
20260508132825 51 292 0.0 0.0 0.00 0.00 0.00 90 1019.0
20260508131824 51 230 0.0 0.0 0.00 0.00 0.00 91 1019.0
20260508130827 51 292 0.0 0.0 0.00 0.00 0.00 90 1018.8
20260508125924 51 289 0.0 0.0 0.00 0.00 0.00 92 1018.8
20260508124927 51 261 0.0 0.0 0.00 0.00 0.00 92 1018.8
20260508123926 51 292 0.0 0.0 0.00 0.00 0.00 92 1018.6
20260508122925 51 294 0.0 0.0 0.00 0.00 0.00 91 1018.5
20260508121927 51 296 0.0 0.0 0.00 0.00 0.00 92 1018.6
20260508120926 51 294 0.0 0.0 0.00 0.00 0.00 92 1018.8
20260508115926 51 292 0.0 0.0 0.00 0.00 0.00 92 1018.6
20260508114926 52 292 0.0 0.0 0.00 0.00 0.00 93 1018.5
20260508113926 52 294 0.0 0.0 0.00 0.00 0.00 93 1018.5
20260508112925 51 294 0.0 0.0 0.00 0.00 0.00 94 1018.5
20260508111925 51 292 0.0 0.0 0.00 0.00 0.00 95 1018.3
20260508111024 51 292 0.0 0.0 0.00 0.00 0.00 94 1018.3
20260508110926 52 292 0.0 0.0 0.00 0.00 0.00 95 1018.2
20260508105926 52 292 0.0 0.0 0.00 0.00 0.00 95 1018.3
20260508104925 52 292 0.0 0.0 0.00 0.00 0.00 95 1018.1
20260508102927 51 292 0.0 0.0 0.00 0.00 0.00 94 1018.1
20260508102025 51 294 0.0 0.0 0.00 0.00 0.00 95 1018.1
20260508101026 52 180 0.0 0.0 0.00 0.00 0.00 95 1018.0
20260508100025 52 157 0.0 0.0 0.00 0.00 0.00 95 1018.0
20260508095027 52 157 0.0 0.0 0.00 0.00 0.00 95 1017.9
20260508093126 52 157 0.0 0.0 0.00 0.00 0.00 94 1017.6
20260508092127 52 157 0.0 0.0 0.00 0.00 0.00 94 1017.8
20260508091127 52 157 0.0 0.0 0.00 0.00 0.00 94 1017.7
20260508090124 52 157 0.0 0.0 0.00 0.00 0.00 94 1017.8
20260508090026 52 157 0.0 0.0 0.00 0.00 0.00 94 1017.8
20260508085125 51 292 0.0 0.0 0.00 0.00 0.00 93 1017.9
20260508084125 52 292 0.0 0.0 0.00 0.00 0.00 92 1017.8
20260508083025 51 292 0.0 0.0 0.00 0.00 0.00 93 1017.8
20260508081927 51 292 0.0 0.0 0.00 0.00 0.00 93 1017.9
20260508075925 52 292 0.0 0.0 0.00 0.00 0.00 92 1017.9
20260508074926 51 292 0.0 0.0 0.00 0.00 0.00 91 1017.8
20260508073925 51 292 0.0 0.0 0.00 0.00 0.00 91 1017.9
20260508072925 51 292 0.0 0.0 0.00 0.00 0.00 92 1018.1
20260508071926 51 292 0.0 0.0 0.00 0.00 0.00 91 1018.2
20260508070925 50 292 0.0 0.0 0.00 0.00 0.00 91 1018.2
20260508070009 51 292 0.0 0.0 0.00 0.00 0.00 91 1018.2
20260508065010 50 292 0.0 0.0 0.00 0.00 0.00 91 1018.3
20260508064110 50 292 0.0 0.0 0.00 0.00 0.00 90 1018.2
20260508063109 50 292 0.0 0.0 0.00 0.00 0.00 90 1018.2
20260508062109 50 292 0.0 0.0 0.00 0.00 0.00 90 1018.3
20260508061110 50 292 0.0 0.0 0.00 0.00 0.00 89 1018.4
20260508060109 50 292 0.0 0.0 0.00 0.00 0.00 89 1018.5
20260508055111 51 292 0.0 0.0 0.00 0.00 0.00 88 1018.6
20260508053209 51 292 0.0 0.0 0.00 0.00 0.00 88 1018.5
20260508051211 51 292 0.0 0.0 0.00 0.00 0.00 87 1018.5
20260508050210 51 292 0.0 0.0 0.00 0.00 0.00 88 1018.5